OPS 4682 DEB, 38364

Orbit data source: Space-Track

OPS 4682 DEB, 38364 is space debris in LEO originally from a launch on Sat, 03 Apr 1965 UTC launched from the Air Force Western Test Range (AFWTR). Debris objects in space refer to the collection of defunct objects orbiting the Earth. Examples of debris include non-operational satellites, rocket bodies, and fragments generated from explosions, collisions, or faulty payload assembly.

Loading next visibility...
Identifier
38364, 1965-027BR
Orbit
LEO
Country
Flag of USUS
Related business
Manufacturer
Unknown
Mission
Spacecraft
Bus & Motor
Unknown
Mass
Unknown
Launch date (UTC)
1965-04-03 (61 years ago)
Launch vehicle
Unknown
Launch site
Air Force Western Test Range (AFWTR)
Object type
Payload
Rocket body
Debris
Shape & HBR
Unknown shape, 0.1 m
Radar Cross Section
Medium (>0.1 m² and <1 m²)

Expand to show TLE details & history
Last TLE update: 1 day ago

TLE from 1 day ago
0 OPS 4682 DEB
1 38364U 65027BR  26262.26167279 -.00000114  00000-0 -42339-3 0  9994
2 38364  90.2566  14.0107 0034233 225.2011 134.6325 12.96491865674760
Epoch: 2026-09-19T06:16Z
TLE epoch observation values (Epoch: 2026-09-19T06:16:48.529Z)
Latitude
0.00004°
Longitude
-78.36424°
Altitude
1,297.198 km
Speed
7.199 km/s
True Right ascension
00h 56m 02s
True Declination
0° 00' 00"
Sunlit
Object was in full shadow at epoch
Visualization orbit readout
Latitude
Unknown
Longitude
Unknown
Altitude
Unknown
Speed
Unknown
Apparent Right ascension
Unknown
Apparent Declination
Unknown
Sunlit
N/A
Visualization observer readout
Local Sidereal Time
06:09:46
Azimuth
Unknown
Elevation
Unknown
Doppler factor
Unknown
Orbital elements
Apogee altitude
1,299.187 km
Perigee altitude
1,246.803 km
Semi-major axis
7,651.132 km
Eccentricity
0.00342
Inclination
90.2566°
RAAN
14.0107°
Arg. of periapsis
225.2011°
True anomaly
134.91082°
Mean anomaly
134.6325°
Eccentric anomaly
134.77174°
Mean motion
3.24306 °/min
Orbital period
111.01 mins
BSTAR
-0.00042339
Loading maneuver chart data...
Computing Atmospheric mass density...
Loading historical data...
Loading historical data...
Loading historical data...
Loading historical data...
Loading historical data...
Loading historical data...
Loading historical data...

Documentation

Showing up to 5 results
|